Tacoma Narrows, WA
on Monday, December 3, 2012

Monday
Previous Day Next Day
Daily Summary
 ActualAverageRecord
Temperature
Mean Temperature °F °F  
Max Temperature 51°F 45°F 57°F (2007)
Min Temperature 44°F 38°F 32°F (1996)
Degree Days
Heating Degree Days 18    
Moisture
Dew Point 43°F   
Average Humidity 86    
Maximum Humidity 93    
Minimum Humidity 66    
Precipitation
Precipitation 0.59 in in in ()
Wind
Wind Speed 11 mph   
Max Wind Speed 18 mph   
Max Gust Speed 25 mph   
Visibility 9 miles   
Events Rain   
Averages and records for this station are not official NWS values.
Key: T is trace of precipitation, MM is missing value
Source: NWS Daily Summary
Seasonal Weather Averages
Time(PST)TemperatureDew PointHumidity Pressure Visibility Wind DirectionWind SpeedGust SpeedPrecipitationEvents Conditions
12:24 AM 46.4°F 42.8°F 87% 29.80 in 10.0 miles South 12.7 mph - 0.02 in Rain Light Rain
12:53 AM 46.9°F 43.0°F 86% 29.81 in 9.0 miles South 13.8 mph 24.2 mph 0.02 in Rain Light Rain
1:08 AM 46.4°F 42.8°F 87% 29.80 in 10.0 miles South 16.1 mph 24.2 mph 0.00 in   Overcast
1:19 AM 46.4°F 42.8°F 87% 29.80 in 10.0 miles South 17.3 mph 24.2 mph 0.00 in   Overcast
1:53 AM 46.9°F 43.0°F 86% 29.83 in 8.0 miles South 18.4 mph 25.3 mph 0.02 in Rain Light Rain
2:53 AM 46.9°F 43.0°F 86% 29.84 in 10.0 miles South 13.8 mph 24.2 mph 0.00 in   Mostly Cloudy
3:53 AM 46.9°F 43.0°F 86% 29.86 in 8.0 miles South 15.0 mph - 0.01 in Rain Light Rain
4:48 AM 46.4°F 42.8°F 87% 29.87 in 5.0 miles SW 8.1 mph 21.9 mph 0.10 in Rain Rain
4:49 AM 46.0°F 43.0°F 89% 29.87 in 5.0 miles SSW 8.1 mph 21.9 mph 0.10 in Rain Rain
5:15 AM 46.4°F 42.8°F 87% 29.89 in 3.0 miles SW 10.4 mph 16.1 mph 0.15 in Rain Rain
5:25 AM 44.6°F 41.0°F 87% 29.89 in 4.0 miles SW 12.7 mph 24.2 mph 0.20 in Rain Rain
5:38 AM 44.6°F 42.8°F 93% 29.89 in 6.0 miles SW 10.4 mph - 0.23 in Rain Light Rain
5:53 AM 45.0°F 41.0°F 86% 29.90 in 7.0 miles SSW 13.8 mph 25.3 mph 0.26 in Rain Light Rain
6:17 AM 44.6°F 41.0°F 87% 29.90 in 10.0 miles SW 5.8 mph - 0.01 in Rain Light Rain
6:29 AM 46.4°F 41.0°F 81% 29.90 in 10.0 miles South 12.7 mph 19.6 mph 0.01 in Rain Light Rain
6:45 AM 44.6°F 42.8°F 93% 29.90 in 6.0 miles South 10.4 mph - 0.01 in   Overcast
6:53 AM 46.4°F 42.8°F 87% 29.91 in 9.0 miles South 11.5 mph - N/A   Overcast
7:35 AM 46.4°F 42.8°F 87% 29.93 in 10.0 miles South 13.8 mph - N/A   Overcast
7:53 AM 46.0°F 42.1°F 86% 29.94 in 10.0 miles South 12.7 mph - N/A   Overcast
8:22 AM 46.4°F 42.8°F 87% 29.95 in 10.0 miles South 10.4 mph - N/A   Overcast
8:53 AM 46.0°F 42.1°F 86% 29.97 in 10.0 miles South 9.2 mph - 0.00 in   Overcast
9:53 AM 46.9°F 43.0°F 86% 29.99 in 10.0 miles South 11.5 mph - N/A   Overcast
10:17 AM 46.4°F 42.8°F 87% 29.98 in 10.0 miles South 15.0 mph 21.9 mph N/A   Overcast
10:53 AM 46.9°F 43.0°F 86% 30.00 in 10.0 miles South 9.2 mph 18.4 mph N/A   Overcast
11:53 AM 48.0°F 44.1°F 86% 30.00 in 10.0 miles South 9.2 mph - N/A   Overcast
12:53 PM 48.0°F 44.1°F 86% 29.99 in 6.0 miles South 9.2 mph - 0.02 in Rain Light Rain
1:48 PM 48.2°F 46.4°F 93% 29.96 in 10.0 miles Calm Calm - 0.02 in Rain Light Rain
1:53 PM 48.0°F 45.0°F 89% 29.97 in 9.0 miles Calm Calm - 0.03 in Rain Light Rain
2:53 PM 48.9°F 45.0°F 86% 29.95 in 8.0 miles SSE 4.6 mph - 0.00 in Rain Light Rain
3:53 PM 48.9°F 46.0°F 90% 29.94 in 10.0 miles Calm Calm - 0.04 in Rain Light Rain
4:00 PM 48.2°F 46.4°F 93% 29.93 in 7.0 miles SE 3.5 mph - 0.00 in Rain Light Rain
4:12 PM 48.2°F 46.4°F 93% 29.93 in 6.0 miles South 4.6 mph - 0.01 in Rain Light Rain
4:53 PM 48.0°F 46.0°F 93% 29.92 in 10.0 miles SSE 4.6 mph - 0.03 in   Overcast
5:13 PM 48.2°F 44.6°F 87% 29.91 in 10.0 miles SSE 5.8 mph - N/A   Overcast
5:53 PM 48.9°F 45.0°F 86% 29.90 in 10.0 miles SSE 5.8 mph - 0.00 in Rain Light Rain
6:53 PM 48.9°F 44.1°F 83% 29.88 in 10.0 miles SSE 10.4 mph 17.3 mph 0.01 in   Overcast
7:53 PM 48.9°F 44.1°F 83% 29.85 in 10.0 miles South 5.8 mph - 0.01 in Rain Light Rain
8:53 PM 48.9°F 43.0°F 80% 29.80 in 10.0 miles South 5.8 mph - 0.00 in   Overcast
9:53 PM 50.0°F 41.0°F 71% 29.74 in 10.0 miles Variable 4.6 mph - N/A   Mostly Cloudy
10:53 PM 51.1°F 39.9°F 66% 29.68 in 10.0 miles SSE 9.2 mph - 0.00 in Rain Light Rain
11:53 PM 48.9°F 42.1°F 77% 29.65 in 7.0 miles SSW 9.2 mph - 0.04 in Rain Light Rain
Moon Phase
Dec. 03 Dec. 06 Dec. 13 Dec. 20 Dec. 28
Sunrise:07:39 AM (PST) Moon Rise:09:25 PM (PST)12/3
Sunset:04:21 PM (PST) Moon Set:10:55 AM (PST)12/3

Copyright © 2014 The Weather Underground, Inc.